Home   Weather   New Zealand   Auckland   Past weeks
Flag for New Zealand

Past Weather in Auckland, New Zealand — August 2015

Currently: 64 °F. Mild. (Weather station: Auckland Airport, New Zealand). See more current weather

August 2015 Weather in Auckland — Graph

°F

High & Low Weather Summary for August 2015

 TemperatureHumidityPressure
High64 °F (Aug 3, 1:30 pm)100% (Aug 2, 8:00 am)30.54 "Hg (Aug 2, 8:00 am)
Low36 °F (Aug 13, 6:30 am)51% (Aug 8, 3:30 pm)29.47 "Hg (Aug 8, 3:00 am)
Average52 °F85%30.05 "Hg
* Reported Aug 1 12:00 am — Aug 31 11:30 pm, Auckland. Weather by CustomWeather, © 2021

Note: Actual official high and low records may vary slightly from our data, if they occured in-between our weather recording intervals... More about our weather records

Auckland Weather History for August 1, 2015

Scroll right to see more
 ConditionsComfort  
Time TempWeatherWind HumidityBarometerVisibility
12:00 am
Sat, Aug 1
50 °FOvercast.5 mph88%30.27 "HgN/A
12:30 am50 °FPassing clouds.6 mph88%30.24 "HgN/A
1:00 am48 °FPassing clouds.6 mph87%30.24 "HgN/A
1:30 am48 °FPassing clouds.7 mph87%30.24 "HgN/A
2:00 am48 °FPassing clouds.6 mph87%30.24 "HgN/A
2:30 am48 °FPassing clouds.7 mph87%30.24 "HgN/A
3:00 am48 °FPassing clouds.8 mph87%30.24 "HgN/A
3:30 am50 °FOvercast.8 mph82%30.21 "HgN/A
4:00 am50 °FOvercast.9 mph82%30.21 "HgN/A
4:30 am48 °FPassing clouds.8 mph87%30.21 "HgN/A
5:00 am48 °FPassing clouds.7 mph87%30.21 "HgN/A
5:30 am48 °FPassing clouds.10 mph94%30.21 "HgN/A
6:00 am48 °FPassing clouds.9 mph94%30.21 "HgN/A
6:30 am50 °FOvercast.8 mph88%30.21 "HgN/A
7:00 am50 °FOvercast.7 mph88%30.21 "HgN/A
7:30 am50 °FOvercast.9 mph88%30.24 "HgN/A
8:00 am50 °FPartly sunny.10 mph88%30.24 "HgN/A
8:30 am50 °FPartly sunny.9 mph94%30.24 "HgN/A
9:00 am52 °FPartly sunny.9 mph88%30.24 "HgN/A
9:30 am54 °FPartly sunny.9 mph82%30.24 "HgN/A
10:30 am57 °FCool.10 mph77%30.24 "HgN/A
11:00 am57 °FCool.13 mph77%30.24 "HgN/A
11:30 am57 °FCool.10 mph77%30.24 "HgN/A
12:00 pm57 °FPassing clouds.8 mph72%30.24 "HgN/A
12:30 pm57 °FDrizzle. Broken clouds.10 mph72%30.21 "HgN/A
1:00 pm55 °FSprinkles. Mostly cloudy.15 mph82%30.21 "HgN/A
1:30 pm59 °FPartly sunny.7 mph63%30.21 "HgN/A
2:00 pm59 °FPartly sunny.8 mph63%30.18 "HgN/A
2:30 pm61 °FPartly sunny.12 mph59%30.21 "HgN/A
3:00 pm59 °FOvercast.13 mph63%30.21 "HgN/A
3:30 pm59 °FScattered clouds.15 mph68%30.21 "HgN/A
4:00 pm59 °FCool.13 mph68%30.21 "HgN/A
4:30 pm57 °FCool.8 mph77%30.21 "HgN/A
5:30 pm57 °FPassing clouds.7 mph72%30.21 "HgN/A
6:00 pm55 °FCool.6 mph77%30.21 "HgN/A
6:30 pm55 °FCool.6 mph77%30.21 "HgN/A
7:00 pm54 °FCool.5 mph82%30.21 "HgN/A
7:30 pm54 °FCool.5 mph82%30.21 "HgN/A
8:00 pm52 °FCool.5 mph88%30.21 "HgN/A
8:30 pm52 °FPassing clouds.5 mph88%30.24 "HgN/A
9:00 pm52 °FPassing clouds.3 mph88%30.24 "HgN/A
9:30 pm52 °FPassing clouds.5 mph88%30.24 "HgN/A
10:00 pm52 °FPassing clouds.6 mph82%30.24 "HgN/A
10:30 pm52 °FCool.9 mph82%30.24 "HgN/A
11:00 pm52 °FCool.9 mph82%30.24 "HgN/A
11:30 pm52 °FCool.7 mph88%30.24 "HgN/A
Weather by CustomWeather, © 2021

See weather overview